Regional Weather Roundup
Issued by NWS

Home | Current Version | Previous Version | Text Only | Print | Product List | Glossary Off
Versions: 1 2 3 4 5 6 7 8 9 10 11 12 13 14 15 16 17 18 19 20 21 22 23 24 25 26 27 28 29 30 31 32 33 34 35 36 37 38 39 40 41 42 43 44 45 46 47 48 49 50

000
ASUS44 KMEG 290800
RWRTN
TENNESSEE HOURLY STATE WEATHER ROUNDUP
NATIONAL WEATHER SERVICE MEMPHIS TN
300 AM CDT WED JUL 29 2015

TNZ002-004-019-021-049-052-054-088>092-290900-
WEST TENNESSEE

CITY           SKY/WX    TMP DP  RH WIND       PRES   REMARKS
MEMPHIS INTL   CLEAR     82  75  79 CALM      29.96F
NWS MEMPHIS      N/A     78 N/A N/A MISG        N/A
JACKSON        PTCLDY    77  73  87 CALM      29.96F
DYERSBURG        N/A    N/A N/A N/A MISG        N/A
PARIS          CLEAR     72  70  94 CALM      29.98S
LEXINGTON      CLEAR     72  72 100 CALM      29.97S
$$

TNZ008-025-027-028-033-062-065-066-290900-
NORTH MIDDLE TENNESSEE

CITY           SKY/WX    TMP DP  RH WIND       PRES   REMARKS
NASHVILLE      MOCLDY    74  74 100 SE5       29.98F
CLARKSVILLE    CLEAR     72  71  97 CALM      29.97F FOG
CROSSVILLE     MOCLDY    73  68  84 CALM      30.05F
$$

TNZ061-075-076-078-094-096-097-290900-
SOUTH MIDDLE TENNESSEE

CITY           SKY/WX    TMP DP  RH WIND       PRES   REMARKS
FAYETTEVILLE   MOCLDY    73  72  94 NE8       30.01F
TULLAHOMA      PTCLDY    73  72  94 CALM      30.04S
WINCHESTER     MOCLDY    73  73 100 CALM      30.03R
MCMINNVILLE    CLOUDY    73  73 100 E3        30.02F
SHELBYVILLE    PTCLDY    75  75 100 E3        30.02F
$$

TNZ017-018-042-046-047-290900-
NORTHEAST TENNESSEE

CITY           SKY/WX    TMP DP  RH WIND       PRES   REMARKS
TRI CITIES     PTCLDY    70  68  93 CALM      30.02F FOG
ELIZABETHTON   MOSUNNY   68  66  94 CALM      30.04S
$$

TNZ012-013-036-069-073-074-290900-
CENTRAL EAST TENNESSEE

CITY           SKY/WX    TMP DP  RH WIND       PRES   REMARKS
KNOXVILLE      MOCLDY    76  73  91 CALM      29.99S
OAK RIDGE      PTCLDY    75  72  90 CALM      30.01S
GATLINBURG     MOSUNNY   72  70  94 CALM      30.00S
$$

TNZ083-085-099-290900-
SOUTHEAST TENNESSEE

CITY           SKY/WX    TMP DP  RH WIND       PRES   REMARKS
CHATTANOOGA    PTCLDY    77  73  87 NE3       29.99R
$$

SKY/WX REPORTED AS FAIR MEANS FEW OR NO CLOUDS BELOW
12 THOUSAND FEET.




USA.gov is the U.S. government's official web portal to all federal, state and local government web resources and services.